Location: Burera
(21.3780°N, 81.9534°E)
Time: 00:19:19
(UTC+00:00)

Cosmos 1656 - Pass Details

Date: 13 August 2020
Orbit: 798 x 849 km, 71.1° (Epoch: 22 September)

Event Time Altitude Azimuth Distance (km) Brightness Sun altitude
Rises 14:23:07 0° 346° (NNW) 3,337 7.4 -18.2°
Reaches altitude 10° 14:25:33 10° 349° (N) 2,411 6.5 -18.7°
Maximum altitude 14:31:03 67° 72° (ENE) 893 3.6 -19.9°
Enters shadow 14:33:20 36° 143° (SE) 1,299 4.2 -20.4°
